TimeCST,TemperatureF,Dew PointF,Humidity,Sea Level PressureIn,VisibilityMPH,Wind Direction,Wind SpeedMPH,Gust SpeedMPH,PrecipitationIn,Events,Conditions,WindDirDegrees,DateUTC
12:15 AM,24.6,16.2,70,30.27,10.0,NW,6.9,-,N/A,,Clear,320,2012-12-22 06:15:00
12:35 AM,24.3,15.8,70,30.27,10.0,NW,5.8,-,N/A,,Clear,320,2012-12-22 06:35:00
12:55 AM,23.5,16.3,74,30.27,10.0,NNW,5.8,-,N/A,,Clear,340,2012-12-22 06:55:00
1:15 AM,23.0,15.8,74,30.27,10.0,WNW,5.8,-,N/A,,Clear,300,2012-12-22 07:15:00
1:35 AM,22.6,15.8,75,30.28,10.0,NW,5.8,-,N/A,,Clear,310,2012-12-22 07:35:00
1:55 AM,22.6,15.8,75,30.28,10.0,NNW,4.6,-,N/A,,Clear,330,2012-12-22 07:55:00
2:15 AM,22.1,15.8,77,30.28,10.0,NNW,3.5,-,N/A,,Clear,330,2012-12-22 08:15:00
2:35 AM,22.1,16.0,77,30.28,10.0,NW,4.6,-,N/A,,Clear,320,2012-12-22 08:35:00
2:55 AM,21.6,15.8,78,30.29,10.0,NW,4.6,-,N/A,,Clear,310,2012-12-22 08:55:00
3:15 AM,21.2,15.4,78,30.29,10.0,WNW,4.6,-,N/A,,Clear,290,2012-12-22 09:15:00
3:35 AM,21.0,16.0,81,30.29,10.0,WNW,4.6,-,N/A,,Clear,300,2012-12-22 09:35:00
3:55 AM,20.8,15.4,80,30.29,10.0,WNW,4.6,-,N/A,,Clear,300,2012-12-22 09:55:00
4:15 AM,21.6,16.5,81,30.30,10.0,West,3.5,-,N/A,,Clear,260,2012-12-22 10:15:00
4:35 AM,20.8,15.8,81,30.30,10.0,West,4.6,-,N/A,,Clear,260,2012-12-22 10:35:00
4:55 AM,20.3,15.6,82,30.30,10.0,West,3.5,-,N/A,,Clear,280,2012-12-22 10:55:00
5:15 AM,19.8,15.3,83,30.30,10.0,West,3.5,-,N/A,,Clear,280,2012-12-22 11:15:00
5:35 AM,19.4,15.1,83,30.30,10.0,Calm,Calm,-,N/A,,Clear,0,2012-12-22 11:35:00
5:55 AM,19.4,15.8,86,30.30,10.0,Calm,Calm,-,N/A,,Clear,0,2012-12-22 11:55:00
6:15 AM,18.9,15.8,88,30.30,10.0,Calm,Calm,-,N/A,,Clear,0,2012-12-22 12:15:00
6:35 AM,18.9,15.4,87,30.30,10.0,WNW,3.5,-,N/A,,Clear,290,2012-12-22 12:35:00
6:55 AM,18.3,15.8,90,30.30,10.0,WSW,3.5,-,N/A,,Clear,240,2012-12-22 12:55:00
7:15 AM,18.0,16.3,93,30.31,10.0,SW,3.5,-,N/A,,Clear,230,2012-12-22 13:15:00
7:35 AM,19.2,16.9,91,30.31,10.0,SSW,5.8,-,N/A,,Clear,210,2012-12-22 13:35:00
7:55 AM,21.6,18.3,87,30.32,10.0,SW,4.6,-,N/A,,Clear,230,2012-12-22 13:55:00
8:15 AM,22.8,18.5,83,30.31,10.0,SW,4.6,-,N/A,,Clear,220,2012-12-22 14:15:00
8:35 AM,23.9,17.8,77,30.30,10.0,SSW,3.5,-,N/A,,Clear,210,2012-12-22 14:35:00
8:55 AM,24.6,17.4,74,30.29,10.0,Calm,Calm,-,N/A,,Clear,0,2012-12-22 14:55:00
9:15 AM,25.9,18.3,73,30.30,10.0,SSW,4.6,-,N/A,,Clear,210,2012-12-22 15:15:00
9:35 AM,27.0,18.1,69,30.29,10.0,SE,3.5,-,N/A,,Clear,140,2012-12-22 15:35:00
9:55 AM,28.2,19.2,69,30.29,10.0,SSE,3.5,-,N/A,,Clear,160,2012-12-22 15:55:00
10:15 AM,29.1,18.5,65,30.29,10.0,South,3.5,-,N/A,,Clear,180,2012-12-22 16:15:00
10:35 AM,30.7,19.2,62,30.29,10.0,SSW,4.6,-,N/A,,Clear,200,2012-12-22 16:35:00
10:55 AM,32.0,19.9,61,30.28,10.0,South,4.6,-,N/A,,Clear,190,2012-12-22 16:55:00
11:15 AM,32.7,19.9,59,30.27,10.0,South,4.6,-,N/A,,Clear,190,2012-12-22 17:15:00
11:35 AM,33.6,21.2,60,30.25,10.0,SSE,5.8,-,N/A,,Clear,160,2012-12-22 17:35:00
11:55 AM,34.7,21.9,60,30.24,10.0,SSE,6.9,-,N/A,,Clear,150,2012-12-22 17:55:00
12:15 PM,35.4,21.4,57,30.22,10.0,SSE,6.9,-,N/A,,Clear,150,2012-12-22 18:15:00
12:35 PM,36.7,21.2,54,30.20,10.0,SSE,6.9,-,N/A,,Clear,150,2012-12-22 18:35:00
12:55 PM,37.6,22.3,54,30.19,10.0,South,8.1,-,N/A,,Clear,170,2012-12-22 18:55:00
1:15 PM,38.1,20.8,50,30.19,10.0,South,9.2,-,N/A,,Clear,170,2012-12-22 19:15:00
1:35 PM,39.2,21.2,49,30.18,10.0,SSE,8.1,-,N/A,,Clear,160,2012-12-22 19:35:00
1:55 PM,39.4,19.6,45,30.18,10.0,SSE,8.1,-,N/A,,Clear,160,2012-12-22 19:55:00
2:15 PM,40.3,21.6,47,30.17,10.0,South,8.1,-,N/A,,Clear,170,2012-12-22 20:15:00
2:35 PM,40.3,21.6,47,30.16,10.0,SSE,10.4,-,N/A,,Clear,160,2012-12-22 20:35:00
2:55 PM,40.5,22.5,49,30.15,10.0,SSE,10.4,-,N/A,,Clear,160,2012-12-22 20:55:00
3:15 PM,40.5,23.5,51,30.15,10.0,SSE,9.2,-,N/A,,Clear,160,2012-12-22 21:15:00
3:35 PM,39.7,23.7,53,30.13,10.0,SSE,9.2,-,N/A,,Clear,160,2012-12-22 21:35:00
3:55 PM,38.8,22.6,52,30.13,10.0,SSE,8.1,-,N/A,,Clear,160,2012-12-22 21:55:00
4:15 PM,37.0,23.9,59,30.12,10.0,SSE,9.2,-,N/A,,Clear,150,2012-12-22 22:15:00
4:35 PM,35.4,23.5,62,30.11,10.0,SE,8.1,-,N/A,,Clear,140,2012-12-22 22:35:00
4:55 PM,34.0,23.9,67,30.11,10.0,SE,8.1,-,N/A,,Clear,140,2012-12-22 22:55:00
5:15 PM,33.3,23.9,69,30.11,10.0,SSE,6.9,-,N/A,,Clear,150,2012-12-22 23:15:00
5:35 PM,31.6,23.5,72,30.09,10.0,SE,6.9,-,N/A,,Clear,140,2012-12-22 23:35:00
5:55 PM,31.1,23.7,74,30.09,10.0,SSE,8.1,-,N/A,,Clear,150,2012-12-22 23:55:00
6:15 PM,32.0,24.8,75,30.08,10.0,SSE,8.1,-,N/A,,Clear,160,2012-12-23 00:15:00
6:35 PM,32.7,24.3,71,30.08,10.0,South,9.2,-,N/A,,Clear,170,2012-12-23 00:35:00
6:55 PM,32.0,24.4,74,30.07,10.0,SSE,8.1,-,N/A,,Clear,160,2012-12-23 00:55:00
7:15 PM,32.0,23.5,71,30.07,10.0,South,5.8,-,N/A,,Clear,180,2012-12-23 01:15:00
7:35 PM,30.7,23.0,73,30.06,10.0,South,6.9,-,N/A,,Clear,180,2012-12-23 01:35:00
7:55 PM,29.8,23.5,77,30.06,10.0,South,5.8,-,N/A,,Clear,180,2012-12-23 01:55:00
8:15 PM,30.7,23.2,74,30.05,10.0,South,5.8,-,N/A,,Clear,180,2012-12-23 02:15:00
8:35 PM,30.0,22.8,75,30.04,10.0,South,6.9,-,N/A,,Clear,180,2012-12-23 02:35:00
8:55 PM,30.7,22.8,72,30.04,10.0,South,3.5,-,N/A,,Clear,180,2012-12-23 02:55:00
9:15 PM,31.3,23.2,72,30.04,10.0,Calm,Calm,-,N/A,,Clear,0,2012-12-23 03:15:00
9:35 PM,27.9,22.6,81,30.03,10.0,South,3.5,-,N/A,,Clear,170,2012-12-23 03:35:00
9:55 PM,26.4,22.6,86,30.03,10.0,South,5.8,-,N/A,,Clear,180,2012-12-23 03:55:00
10:15 PM,27.7,22.5,81,30.02,10.0,South,4.6,-,N/A,,Clear,170,2012-12-23 04:15:00
10:35 PM,27.5,22.6,82,30.01,10.0,SSE,6.9,-,N/A,,Clear,160,2012-12-23 04:35:00
10:55 PM,27.7,22.6,81,30.01,10.0,South,5.8,-,N/A,,Clear,170,2012-12-23 04:55:00
11:15 PM,28.6,22.8,79,30.00,10.0,South,4.6,-,N/A,,Clear,170,2012-12-23 05:15:00
11:35 PM,29.1,22.1,75,29.99,10.0,South,5.8,-,N/A,,Clear,170,2012-12-23 05:35:00
11:55 PM,28.4,22.6,79,29.99,10.0,South,5.8,-,N/A,,Clear,180,2012-12-23 05:55:00